| time (UTC) | temp C | wind direction | speed KPH | gust KPH | rain 1hr cm | rain 24hr cm | rain mn cm | humidity % | barometer mb |
| 20260510102511 | 14 | 222 | 4.8 | 14.5 | 0.00 | 0.00 | 0.00 | 64 | 1013.6 |
| 20260510102011 | 13 | 122 | 0.0 | 4.8 | 0.00 | 0.00 | 0.00 | 66 | 1013.7 |
| 20260510101526 | 13 | 125 | 0.0 | 6.4 | 0.00 | 0.00 | 0.00 | 64 | 1013.7 |
| 20260510101008 | 13 | 208 | 3.2 | 11.3 | 0.00 | 0.00 | 0.00 | 66 | 1013.8 |
| 20260510100509 | 12 | 160 | 1.6 | 11.3 | 0.00 | 0.00 | 0.00 | 66 | 1013.9 |
| 20260510100027 | 12 | 224 | 0.0 | 8.0 | 0.00 | 0.00 | 0.00 | 68 | 1013.9 |
| 20260510095511 | 12 | 165 | 1.6 | 11.3 | 0.00 | 0.00 | 0.00 | 66 | 1013.9 |
| 20260510095014 | 12 | 184 | 4.8 | 11.3 | 0.00 | 0.00 | 0.00 | 64 | 1014.0 |
| 20260510094537 | 13 | 207 | 4.8 | 11.3 | 0.00 | 0.00 | 0.00 | 67 | 1014.1 |
| 20260510094012 | 12 | 249 | 6.4 | 11.3 | 0.00 | 0.00 | 0.00 | 66 | 1014.2 |
| 20260510093508 | 12 | 173 | 4.8 | 12.9 | 0.00 | 0.00 | 0.00 | 67 | 1014.2 |
| 20260510093020 | 12 | 194 | 4.8 | 12.9 | 0.00 | 0.00 | 0.00 | 65 | 1014.3 |
| 20260510092515 | 12 | 226 | 6.4 | 12.9 | 0.00 | 0.00 | 0.00 | 66 | 1014.3 |
| 20260510092007 | 12 | 200 | 6.4 | 12.9 | 0.00 | 0.00 | 0.00 | 69 | 1014.3 |
| 20260510091522 | 11 | 132 | 1.6 | 11.3 | 0.00 | 0.00 | 0.00 | 71 | 1014.4 |
| 20260510091010 | 11 | 133 | 4.8 | 11.3 | 0.00 | 0.00 | 0.00 | 71 | 1014.5 |
| 20260510090509 | 11 | 168 | 6.4 | 11.3 | 0.00 | 0.00 | 0.00 | 71 | 1014.5 |
| 20260510090019 | 10 | 125 | 6.4 | 14.5 | 0.00 | 0.00 | 0.00 | 72 | 1014.4 |
| 20260510085508 | 10 | 152 | 9.7 | 14.5 | 0.00 | 0.00 | 0.00 | 72 | 1014.5 |
| 20260510085010 | 10 | 150 | 9.7 | 14.5 | 0.00 | 0.00 | 0.00 | 72 | 1014.5 |
| 20260510084526 | 10 | 141 | 8.0 | 14.5 | 0.00 | 0.00 | 0.00 | 72 | 1014.6 |
| 20260510084008 | 10 | 152 | 3.2 | 14.5 | 0.00 | 0.00 | 0.00 | 72 | 1014.6 |
| 20260510083510 | 10 | 182 | 9.7 | 14.5 | 0.00 | 0.00 | 0.00 | 72 | 1014.7 |
| 20260510083044 | 10 | 159 | 4.8 | 9.7 | 0.00 | 0.00 | 0.00 | 72 | 1014.6 |
| 20260510082506 | 10 | 156 | 3.2 | 8.0 | 0.00 | 0.00 | 0.00 | 71 | 1014.5 |
| 20260510082013 | 10 | 166 | 4.8 | 9.7 | 0.00 | 0.00 | 0.00 | 72 | 1014.5 |
| 20260510081528 | 10 | 163 | 3.2 | 9.7 | 0.00 | 0.00 | 0.00 | 72 | 1014.5 |
| 20260510081010 | 10 | 130 | 3.2 | 11.3 | 0.00 | 0.00 | 0.00 | 72 | 1014.5 |
| 20260510080509 | 10 | 153 | 3.2 | 11.3 | 0.00 | 0.00 | 0.00 | 71 | 1014.6 |
| 20260510080027 | 10 | 130 | 4.8 | 9.7 | 0.00 | 0.00 | 0.00 | 71 | 1014.6 |
| 20260510075512 | 10 | 131 | 4.8 | 11.3 | 0.00 | 0.00 | 0.00 | 71 | 1014.7 |
| 20260510075008 | 10 | 113 | 6.4 | 11.3 | 0.00 | 0.00 | 0.00 | 71 | 1014.7 |
| 20260510074522 | 10 | 169 | 4.8 | 9.7 | 0.00 | 0.00 | 0.00 | 72 | 1014.7 |
| 20260510074019 | 10 | 144 | 4.8 | 12.9 | 0.00 | 0.00 | 0.00 | 72 | 1014.7 |
| 20260510073510 | 10 | 132 | 3.2 | 16.1 | 0.00 | 0.00 | 0.00 | 73 | 1014.8 |
| 20260510073021 | 10 | 144 | 6.4 | 16.1 | 0.00 | 0.00 | 0.00 | 74 | 1014.9 |
| 20260510072514 | 10 | 163 | 6.4 | 16.1 | 0.00 | 0.00 | 0.00 | 75 | 1014.9 |
| 20260510072010 | 9 | 140 | 9.7 | 16.1 | 0.00 | 0.00 | 0.00 | 75 | 1014.9 |
| 20260510071515 | 9 | 155 | 4.8 | 14.5 | 0.00 | 0.00 | 0.00 | 76 | 1014.9 |
| 20260510071011 | 9 | 128 | 8.0 | 14.5 | 0.00 | 0.00 | 0.00 | 77 | 1015.1 |
| 20260510070509 | 8 | 127 | 6.4 | 11.3 | 0.00 | 0.00 | 0.00 | 78 | 1015.0 |
| 20260510070028 | 8 | 146 | 4.8 | 9.7 | 0.00 | 0.00 | 0.00 | 79 | 1015.1 |
| 20260510065509 | 8 | 142 | 4.8 | 11.3 | 0.00 | 0.00 | 0.00 | 79 | 1015.1 |
| 20260510065008 | 8 | 149 | 4.8 | 11.3 | 0.00 | 0.00 | 0.00 | 79 | 1015.1 |
| 20260510064530 | 8 | 125 | 4.8 | 8.0 | 0.00 | 0.00 | 0.00 | 79 | 1015.2 |
| 20260510064007 | 8 | 147 | 0.0 | 8.0 | 0.00 | 0.00 | 0.00 | 79 | 1015.3 |
| 20260510063508 | 8 | 122 | 1.6 | 8.0 | 0.00 | 0.00 | 0.00 | 79 | 1015.3 |
| 20260510063025 | 8 | 134 | 1.6 | 11.3 | 0.00 | 0.00 | 0.00 | 79 | 1015.1 |
| 20260510062511 | 7 | 105 | 4.8 | 11.3 | 0.00 | 0.00 | 0.00 | 79 | 1015.2 |
| 20260510062010 | 7 | 142 | 6.4 | 9.7 | 0.00 | 0.00 | 0.00 | 78 | 1015.3 |
| 20260510061527 | 7 | 133 | 4.8 | 6.4 | 0.00 | 0.00 | 0.00 | 78 | 1015.3 |
| 20260510061011 | 7 | 105 | 3.2 | 11.3 | 0.00 | 0.00 | 0.00 | 78 | 1015.4 |
| 20260510060507 | 7 | 136 | 1.6 | 12.9 | 0.00 | 0.00 | 0.00 | 79 | 1015.3 |
| 20260510060004 | 7 | 127 | 8.0 | 12.9 | 0.00 | 0.00 | 0.00 | 78 | 1015.3 |
| 20260510055504 | 7 | 119 | 6.4 | 14.5 | 0.00 | 0.00 | 0.00 | 78 | 1015.3 |
| 20260510055008 | 7 | 92 | 4.8 | 14.5 | 0.00 | 0.00 | 0.00 | 78 | 1015.2 |
| 20260510054532 | 7 | 103 | 8.0 | 12.9 | 0.00 | 0.00 | 0.00 | 78 | 1015.3 |
| 20260510054004 | 7 | 109 | 6.4 | 11.3 | 0.00 | 0.00 | 0.00 | 78 | 1015.4 |
| 20260510053504 | 7 | 142 | 6.4 | 11.3 | 0.00 | 0.00 | 0.00 | 1015.4 | |
| 20260510053017 | 7 | 136 | 4.8 | 11.3 | 0.00 | 0.00 | 0.00 | 1015.5 | |
| 20260510052506 | 7 | 123 | 4.8 | 12.9 | 0.00 | 0.00 | 0.00 | 1015.5 | |
| 20260510052006 | 7 | 131 | 6.4 | 12.9 | 0.00 | 0.00 | 0.00 | 1015.6 | |
| 20260510051515 | 7 | 138 | 4.8 | 11.3 | 0.00 | 0.00 | 0.00 | 1015.7 | |
| 20260510051010 | 7 | 125 | 4.8 | 11.3 | 0.00 | 0.00 | 0.00 | 1015.7 | |
| 20260510050503 | 7 | 115 | 4.8 | 9.7 | 0.00 | 0.00 | 0.00 | 78 | 1015.8 |
| 20260510050014 | 7 | 112 | 1.6 | 6.4 | 0.00 | 0.00 | 0.00 | 78 | 1015.9 |
| 20260510045509 | 7 | 114 | 3.2 | 9.7 | 0.00 | 0.00 | 0.00 | 79 | 1015.9 |
| 20260510045004 | 7 | 93 | 1.6 | 9.7 | 0.00 | 0.00 | 0.00 | 78 | 1016.0 |
| 20260510044508 | 7 | 123 | 3.2 | 9.7 | 0.00 | 0.00 | 0.00 | 78 | 1016.0 |
| 20260510044009 | 7 | 111 | 3.2 | 6.4 | 0.00 | 0.00 | 0.00 | 79 | 1016.0 |
| 20260510043510 | 7 | 130 | 0.0 | 6.4 | 0.00 | 0.00 | 0.00 | 79 | 1016.1 |
| 20260510043010 | 7 | 114 | 0.0 | 6.4 | 0.00 | 0.00 | 0.00 | 79 | 1016.2 |
| 20260510042507 | 7 | 101 | 3.2 | 6.4 | 0.00 | 0.00 | 0.00 | 79 | 1016.2 |
| 20260510042006 | 7 | 134 | 1.6 | 6.4 | 0.00 | 0.00 | 0.00 | 79 | 1016.3 |
| 20260510041524 | 7 | 127 | 3.2 | 4.8 | 0.00 | 0.00 | 0.00 | 79 | 1016.4 |
| 20260510041004 | 7 | 119 | 1.6 | 6.4 | 0.00 | 0.00 | 0.00 | 78 | 1016.6 |
| 20260510040509 | 6 | 106 | 3.2 | 4.8 | 0.00 | 0.00 | 0.00 | 78 | 1016.6 |
| 20260510040022 | 6 | 115 | 3.2 | 11.3 | 0.00 | 0.00 | 0.00 | 78 | 1016.7 |
| 20260510035503 | 6 | 133 | 3.2 | 11.3 | 0.00 | 0.00 | 0.00 | 78 | 1016.6 |
| 20260510035009 | 6 | 121 | 3.2 | 4.8 | 0.00 | 0.00 | 0.00 | 78 | 1016.6 |
| 20260510034523 | 6 | 115 | 3.2 | 4.8 | 0.00 | 0.00 | 0.00 | 78 | 1016.6 |
| 20260510034012 | 6 | 115 | 3.2 | 4.8 | 0.00 | 0.00 | 0.00 | 78 | 1016.7 |
| 20260510033507 | 6 | 111 | 1.6 | 4.8 | 0.00 | 0.00 | 0.00 | 79 | 1016.6 |
| 20260510033016 | 6 | 109 | 1.6 | 4.8 | 0.00 | 0.00 | 0.00 | 79 | 1016.7 |
| 20260510032509 | 5 | 121 | 1.6 | 3.2 | 0.00 | 0.00 | 0.00 | 79 | 1016.7 |
| 20260510032005 | 5 | 134 | 1.6 | 3.2 | 0.00 | 0.00 | 0.00 | 81 | 1016.7 |
| 20260510031514 | 5 | 119 | 1.6 | 4.8 | 0.00 | 0.00 | 0.00 | 81 | 1016.8 |
| 20260510031010 | 5 | 121 | 1.6 | 4.8 | 0.00 | 0.00 | 0.00 | 82 | 1016.8 |
| 20260510030517 | 4 | 110 | 1.6 | 4.8 | 0.00 | 0.00 | 0.00 | 81 | 1016.9 |
| 20260510030018 | 4 | 105 | 1.6 | 4.8 | 0.00 | 0.00 | 0.00 | 82 | 1017.0 |
| 20260510025508 | 4 | 110 | 1.6 | 4.8 | 0.00 | 0.00 | 0.00 | 81 | 1017.1 |
| 20260510025012 | 4 | 111 | 3.2 | 4.8 | 0.00 | 0.00 | 0.00 | 81 | 1017.0 |
| 20260510024505 | 4 | 96 | 1.6 | 3.2 | 0.00 | 0.00 | 0.00 | 79 | 1017.0 |
| 20260510024006 | 5 | 111 | 1.6 | 3.2 | 0.00 | 0.00 | 0.00 | 78 | 1017.1 |
| 20260510023506 | 5 | 115 | 1.6 | 3.2 | 0.00 | 0.00 | 0.00 | 79 | 1017.1 |
| 20260510023024 | 5 | 107 | 1.6 | 3.2 | 0.00 | 0.00 | 0.00 | 78 | 1017.1 |
| 20260510022506 | 5 | 109 | 1.6 | 6.4 | 0.00 | 0.00 | 0.00 | 78 | 1017.2 |
| 20260510022010 | 5 | 113 | 1.6 | 6.4 | 0.00 | 0.00 | 0.00 | 78 | 1017.3 |
| 20260510021520 | 5 | 109 | 1.6 | 6.4 | 0.00 | 0.00 | 0.00 | 78 | 1017.3 |
| 20260510021003 | 6 | 109 | 3.2 | 6.4 | 0.00 | 0.00 | 0.00 | 79 | 1017.3 |
| 20260510020511 | 5 | 100 | 1.6 | 4.8 | 0.00 | 0.00 | 0.00 | 79 | 1017.3 |
| 20260510020018 | 5 | 94 | 1.6 | 4.8 | 0.00 | 0.00 | 0.00 | 78 | 1017.4 |
| 20260510015510 | 5 | 112 | 0.0 | 4.8 | 0.00 | 0.00 | 0.00 | 78 | 1017.5 |
| 20260510015003 | 6 | 115 | 1.6 | 6.4 | 0.00 | 0.00 | 0.00 | 77 | 1017.5 |
| 20260510014516 | 6 | 105 | 1.6 | 6.4 | 0.00 | 0.00 | 0.00 | 78 | 1017.5 |
| 20260510014008 | 6 | 115 | 3.2 | 6.4 | 0.00 | 0.00 | 0.00 | 79 | 1017.6 |
| 20260510013510 | 6 | 115 | 3.2 | 6.4 | 0.00 | 0.00 | 0.00 | 79 | 1017.7 |
| 20260510013010 | 6 | 109 | 1.6 | 6.4 | 0.00 | 0.00 | 0.00 | 79 | 1017.8 |
| 20260510012507 | 5 | 95 | 1.6 | 6.4 | 0.00 | 0.00 | 0.00 | 81 | 1017.8 |
| 20260510012009 | 5 | 101 | 3.2 | 4.8 | 0.00 | 0.00 | 0.00 | 80 | 1017.9 |
| 20260510011510 | 5 | 114 | 1.6 | 4.8 | 0.00 | 0.00 | 0.00 | 79 | 1018.0 |
| 20260510011008 | 5 | 123 | 1.6 | 4.8 | 0.00 | 0.00 | 0.00 | 79 | 1018.0 |
| 20260510010511 | 5 | 111 | 0.0 | 6.4 | 0.00 | 0.00 | 0.00 | 79 | 1018.1 |
| 20260510010027 | 5 | 115 | 1.6 | 6.4 | 0.00 | 0.00 | 0.00 | 79 | 1018.0 |
| 20260510005506 | 5 | 101 | 3.2 | 4.8 | 0.00 | 0.00 | 0.00 | 80 | 1018.1 |
| 20260510005006 | 5 | 107 | 1.6 | 4.8 | 0.00 | 0.00 | 0.00 | 80 | 1018.3 |
| 20260510004525 | 5 | 128 | 1.6 | 3.2 | 0.00 | 0.00 | 0.00 | 79 | 1018.5 |
| 20260510004007 | 5 | 126 | 1.6 | 4.8 | 0.00 | 0.00 | 0.00 | 79 | 1018.6 |
| 20260510003507 | 5 | 144 | 1.6 | 4.8 | 0.00 | 0.00 | 0.00 | 79 | 1018.6 |
| 20260510003034 | 5 | 111 | 1.6 | 3.2 | 0.00 | 0.00 | 0.00 | 79 | 1018.7 |
| 20260510002507 | 5 | 125 | 1.6 | 4.8 | 0.00 | 0.00 | 0.00 | 79 | 1018.8 |
| 20260510002006 | 5 | 105 | 1.6 | 4.8 | 0.00 | 0.00 | 0.00 | 78 | 1018.9 |
| 20260510001522 | 4 | 114 | 1.6 | 3.2 | 0.00 | 0.00 | 0.00 | 79 | 1018.9 |
| 20260510001011 | 4 | 118 | 1.6 | 3.2 | 0.00 | 0.00 | 0.00 | 79 | 1019.0 |
| 20260510000504 | 4 | 105 | 1.6 | 3.2 | 0.00 | 0.00 | 0.00 | 80 | 1019.1 |
| 20260510000014 | 4 | 117 | 0.0 | 4.8 | 0.00 | 0.00 | 0.00 | 79 | 1019.1 |
| 20260509235509 | 5 | 117 | 1.6 | 4.8 | 0.00 | 0.00 | 0.00 | 78 | 1019.2 |
| 20260509235010 | 5 | 112 | 1.6 | 3.2 | 0.00 | 0.00 | 0.00 | 74 | 1019.3 |
| 20260509234523 | 5 | 144 | 0.0 | 3.2 | 0.00 | 0.00 | 0.00 | 78 | 1019.4 |
| 20260509234006 | 5 | 144 | 0.0 | 3.2 | 0.00 | 0.00 | 0.00 | 78 | 1019.5 |
| 20260509233502 | 5 | 143 | 1.6 | 3.2 | 0.00 | 0.00 | 0.00 | 80 | 1019.5 |
| 20260509233010 | 4 | 153 | 0.0 | 3.2 | 0.00 | 0.00 | 0.00 | 81 | 1019.5 |
| 20260509232511 | 3 | 128 | 1.6 | 3.2 | 0.00 | 0.00 | 0.00 | 80 | 1019.5 |
| 20260509232007 | 4 | 115 | 0.0 | 3.2 | 0.00 | 0.00 | 0.00 | 79 | 1019.5 |
| 20260509231512 | 3 | 113 | 1.6 | 3.2 | 0.00 | 0.00 | 0.00 | 79 | 1019.6 |
| 20260509231006 | 4 | 148 | 0.0 | 3.2 | 0.00 | 0.00 | 0.00 | 78 | 1019.7 |
| 20260509230508 | 4 | 148 | 0.0 | 3.2 | 0.00 | 0.00 | 0.00 | 79 | 1019.7 |
| 20260509230005 | 3 | 149 | 0.0 | 3.2 | 0.00 | 0.00 | 0.00 | 79 | 1019.8 |
| 20260509225505 | 4 | 153 | 0.0 | 3.2 | 0.00 | 0.00 | 0.00 | 78 | 1019.9 |
| 20260509225008 | 4 | 153 | 0.0 | 1.6 | 0.00 | 0.00 | 0.00 | 76 | 1020.0 |
| 20260509224519 | 3 | 153 | 0.0 | 1.6 | 0.00 | 0.00 | 0.00 | 76 | 1020.0 |
| 20260509224003 | 3 | 153 | 0.0 | 0.0 | 0.00 | 0.00 | 0.00 | 78 | 1020.0 |
| 20260509223510 | 4 | 153 | 0.0 | 0.0 | 0.00 | 0.00 | 0.00 | 77 | 1020.0 |
| 20260509223030 | 4 | 153 | 0.0 | 0.0 | 0.00 | 0.00 | 0.00 | 76 | 1020.1 |
| 20260509222503 | 4 | 153 | 0.0 | 0.0 | 0.00 | 0.00 | 0.00 | 76 | 1020.1 |
| 20260509222007 | 4 | 153 | 0.0 | 0.0 | 0.00 | 0.00 | 0.00 | 76 | 1020.1 |
| 20260509221516 | 4 | 153 | 0.0 | 0.0 | 0.00 | 0.00 | 0.00 | 77 | 1020.2 |
| 20260509221007 | 4 | 153 | 0.0 | 3.2 | 0.00 | 0.00 | 0.00 | 75 | 1020.1 |
| 20260509220503 | 4 | 153 | 0.0 | 3.2 | 0.00 | 0.00 | 0.00 | 76 | 1020.1 |
| 20260509220022 | 4 | 153 | 0.0 | 1.6 | 0.00 | 0.00 | 0.00 | 75 | 1020.2 |
| 20260509215513 | 4 | 153 | 0.0 | 3.2 | 0.00 | 0.00 | 0.00 | 75 | 1020.2 |
| 20260509215008 | 4 | 153 | 0.0 | 3.2 | 0.00 | 0.00 | 0.00 | 74 | 1020.2 |
| 20260509214510 | 5 | 207 | 0.0 | 3.2 | 0.00 | 0.00 | 0.00 | 74 | 1020.2 |
| 20260509214012 | 5 | 213 | 0.0 | 0.0 | 0.00 | 0.00 | 0.00 | 74 | 1020.2 |
| 20260509213509 | 5 | 213 | 0.0 | 0.0 | 0.00 | 0.00 | 0.00 | 73 | 1020.3 |
| 20260509213009 | 5 | 213 | 0.0 | 0.0 | 0.00 | 0.00 | 0.00 | 74 | 1020.2 |
| 20260509212507 | 5 | 213 | 0.0 | 0.0 | 0.00 | 0.00 | 0.00 | 73 | 1020.2 |
| 20260509212009 | 5 | 213 | 0.0 | 0.0 | 0.00 | 0.00 | 0.00 | 74 | 1020.1 |
| 20260509211524 | 5 | 213 | 0.0 | 0.0 | 0.00 | 0.00 | 0.00 | 72 | 1020.1 |
| 20260509211009 | 5 | 213 | 0.0 | 0.0 | 0.00 | 0.00 | 0.00 | 73 | 1020.1 |
| 20260509210508 | 5 | 213 | 0.0 | 0.0 | 0.00 | 0.00 | 0.00 | 73 | 1020.2 |
| 20260509210022 | 5 | 213 | 0.0 | 0.0 | 0.00 | 0.00 | 0.00 | 71 | 1020.2 |
| 20260509205505 | 5 | 213 | 0.0 | 0.0 | 0.00 | 0.00 | 0.00 | 71 | 1020.3 |
| 20260509205007 | 5 | 213 | 0.0 | 0.0 | 0.00 | 0.00 | 0.00 | 70 | 1020.2 |
| 20260509204526 | 6 | 213 | 0.0 | 0.0 | 0.00 | 0.00 | 0.00 | 70 | 1020.2 |
| 20260509204011 | 6 | 213 | 0.0 | 0.0 | 0.00 | 0.00 | 0.00 | 68 | 1020.3 |
| 20260509203504 | 6 | 213 | 0.0 | 0.0 | 0.00 | 0.00 | 0.00 | 69 | 1020.3 |
| 20260509203017 | 6 | 213 | 0.0 | 0.0 | 0.00 | 0.00 | 0.00 | 68 | 1020.3 |
| 20260509202508 | 6 | 213 | 0.0 | 3.2 | 0.00 | 0.00 | 0.00 | 67 | 1020.3 |
| 20260509202004 | 6 | 213 | 0.0 | 3.2 | 0.00 | 0.00 | 0.00 | 66 | 1020.2 |
| 20260509201515 | 6 | 213 | 0.0 | 3.2 | 0.00 | 0.00 | 0.00 | 67 | 1020.3 |
| 20260509201013 | 7 | 213 | 0.0 | 1.6 | 0.00 | 0.00 | 0.00 | 66 | 1020.3 |
| 20260509200508 | 7 | 213 | 0.0 | 1.6 | 0.00 | 0.00 | 0.00 | 64 | 1020.3 |
| 20260509200009 | 7 | 213 | 0.0 | 1.6 | 0.00 | 0.00 | 0.00 | 65 | 1020.3 |
| 20260509195509 | 7 | 213 | 0.0 | 1.6 | 0.00 | 0.00 | 0.00 | 64 | 1020.3 |
| 20260509195007 | 7 | 213 | 1.6 | 1.6 | 0.00 | 0.00 | 0.00 | 63 | 1020.3 |
| 20260509194509 | 7 | 205 | 0.0 | 3.2 | 0.00 | 0.00 | 0.00 | 63 | 1020.2 |
| 20260509194007 | 8 | 202 | 0.0 | 3.2 | 0.00 | 0.00 | 0.00 | 1020.3 | |
| 20260509193508 | 8 | 202 | 0.0 | 3.2 | 0.00 | 0.00 | 0.00 | 58 | 1020.2 |
| 20260509193024 | 8 | 202 | 0.0 | 1.6 | 0.00 | 0.00 | 0.00 | 58 | 1020.3 |
| 20260509192504 | 8 | 202 | 0.0 | 1.6 | 0.00 | 0.00 | 0.00 | 57 | 1020.3 |
| 20260509192008 | 9 | 202 | 0.0 | 3.2 | 0.00 | 0.00 | 0.00 | 56 | 1020.3 |
| 20260509191524 | 10 | 205 | 1.6 | 3.2 | 0.00 | 0.00 | 0.00 | 54 | 1020.2 |
| 20260509191007 | 10 | 203 | 1.6 | 4.8 | 0.00 | 0.00 | 0.00 | 53 | 1020.2 |
| 20260509190507 | 10 | 211 | 3.2 | 6.4 | 0.00 | 0.00 | 0.00 | 52 | 1020.1 |
| 20260509190024 | 10 | 200 | 1.6 | 6.4 | 0.00 | 0.00 | 0.00 | 52 | 1020.1 |
| 20260509185509 | 11 | 213 | 3.2 | 8.0 | 0.00 | 0.00 | 0.00 | 50 | 1020.0 |
| 20260509185007 | 11 | 223 | 3.2 | 8.0 | 0.00 | 0.00 | 0.00 | 49 | 1020.0 |
| 20260509184520 | 11 | 181 | 3.2 | 8.0 | 0.00 | 0.00 | 0.00 | 49 | 1020.0 |
| 20260509184012 | 11 | 222 | 3.2 | 6.4 | 0.00 | 0.00 | 0.00 | 47 | 1020.0 |
| 20260509183509 | 11 | 213 | 1.6 | 8.0 | 0.00 | 0.00 | 0.00 | 47 | 1019.9 |
| 20260509183015 | 12 | 163 | 3.2 | 8.0 | 0.00 | 0.00 | 0.00 | 46 | 1020.0 |
| 20260509182509 | 12 | 194 | 1.6 | 8.0 | 0.00 | 0.00 | 0.00 | 45 | 1020.1 |
| 20260509182010 | 12 | 170 | 3.2 | 8.0 | 0.00 | 0.00 | 0.00 | 44 | 1020.1 |
| 20260509181511 | 12 | 163 | 3.2 | 9.7 | 0.00 | 0.00 | 0.00 | 44 | 1020.1 |
| 20260509181010 | 12 | 163 | 3.2 | 12.9 | 0.00 | 0.00 | 0.00 | 42 | 1020.1 |
| 20260509180508 | 12 | 219 | 3.2 | 12.9 | 0.00 | 0.00 | 0.00 | 42 | 1020.1 |
| 20260509180028 | 12 | 229 | 6.4 | 12.9 | 0.00 | 0.00 | 0.00 | 42 | 1020.0 |
| 20260509175508 | 13 | 215 | 4.8 | 14.5 | 0.00 | 0.00 | 0.00 | 41 | 1020.1 |
| 20260509175010 | 13 | 170 | 6.4 | 14.5 | 0.00 | 0.00 | 0.00 | 41 | 1020.0 |
| 20260509174524 | 13 | 193 | 3.2 | 14.5 | 0.00 | 0.00 | 0.00 | 41 | 1020.1 |
| 20260509173509 | 13 | 214 | 6.4 | 16.1 | 0.00 | 0.00 | 0.00 | 42 | 1020.2 |
| 20260509173025 | 13 | 203 | 8.0 | 16.1 | 0.00 | 0.00 | 0.00 | 41 | 1020.0 |
| 20260509172504 | 13 | 161 | 9.7 | 16.1 | 0.00 | 0.00 | 0.00 | 43 | 1019.9 |
| 20260509172006 | 13 | 193 | 4.8 | 14.5 | 0.00 | 0.00 | 0.00 | 46 | 1020.0 |
| 20260509171526 | 14 | 168 | 6.4 | 14.5 | 0.00 | 0.00 | 0.00 | 46 | 1020.2 |
| 20260509171016 | 14 | 167 | 6.4 | 14.5 | 0.00 | 0.00 | 0.00 | 45 | 1020.0 |
| 20260509170506 | 14 | 164 | 6.4 | 17.7 | 0.00 | 0.00 | 0.00 | 44 | 1020.1 |
| 20260509170037 | 14 | 167 | 9.7 | 17.7 | 0.00 | 0.00 | 0.00 | 44 | 1020.1 |
| 20260509165509 | 14 | 173 | 6.4 | 16.1 | 0.00 | 0.00 | 0.00 | 44 | 1020.0 |
| 20260509165006 | 15 | 151 | 9.7 | 16.1 | 0.00 | 0.00 | 0.00 | 43 | 1020.0 |
| 20260509164534 | 15 | 155 | 6.4 | 19.3 | 0.00 | 0.00 | 0.00 | 44 | 1020.0 |
| 20260509164013 | 15 | 140 | 8.0 | 22.5 | 0.00 | 0.00 | 0.00 | 43 | 1020.0 |
| 20260509163511 | 14 | 157 | 12.9 | 22.5 | 0.00 | 0.00 | 0.00 | 43 | 1020.1 |
| 20260509163017 | 15 | 175 | 12.9 | 20.9 | 0.00 | 0.00 | 0.00 | 43 | 1020.1 |
| 20260509162512 | 15 | 162 | 12.9 | 20.9 | 0.00 | 0.00 | 0.00 | 43 | 1020.2 |
| 20260509162015 | 15 | 160 | 14.5 | 19.3 | 0.00 | 0.00 | 0.00 | 42 | 1020.2 |
| 20260509161509 | 15 | 146 | 6.4 | 17.7 | 0.00 | 0.00 | 0.00 | 43 | 1020.3 |
| 20260509161008 | 15 | 146 | 8.0 | 20.9 | 0.00 | 0.00 | 0.00 | 43 | 1020.3 |
| 20260509160510 | 15 | 180 | 16.1 | 20.9 | 0.00 | 0.00 | 0.00 | 42 | 1020.3 |
| 20260509160032 | 15 | 155 | 14.5 | 20.9 | 0.00 | 0.00 | 0.00 | 41 | 1020.4 |
| 20260509155510 | 15 | 145 | 8.0 | 19.3 | 0.00 | 0.00 | 0.00 | 42 | 1020.4 |
| 20260509155009 | 15 | 167 | 11.3 | 17.7 | 0.00 | 0.00 | 0.00 | 39 | 1020.5 |
| 20260509154525 | 15 | 136 | 11.3 | 17.7 | 0.00 | 0.00 | 0.00 | 39 | 1020.5 |
| 20260509154010 | 15 | 130 | 9.7 | 19.3 | 0.00 | 0.00 | 0.00 | 40 | 1020.6 |
| 20260509153514 | 15 | 154 | 12.9 | 20.9 | 0.00 | 0.00 | 0.00 | 39 | 1020.7 |
| 20260509153033 | 15 | 81 | 11.3 | 22.5 | 0.00 | 0.00 | 0.00 | 40 | 1020.7 |
| 20260509152507 | 15 | 142 | 14.5 | 22.5 | 0.00 | 0.00 | 0.00 | 38 | 1020.7 |
| 20260509152009 | 16 | 136 | 9.7 | 20.9 | 0.00 | 0.00 | 0.00 | 39 | 1020.7 |
| 20260509151523 | 16 | 125 | 11.3 | 20.9 | 0.00 | 0.00 | 0.00 | 38 | 1020.8 |
| 20260509151008 | 16 | 167 | 9.7 | 19.3 | 0.00 | 0.00 | 0.00 | 40 | 1021.0 |
| 20260509150511 | 15 | 155 | 12.9 | 20.9 | 0.00 | 0.00 | 0.00 | 40 | 1021.0 |
| 20260509150030 | 15 | 174 | 12.9 | 20.9 | 0.00 | 0.00 | 0.00 | 39 | 1020.9 |
| 20260509145509 | 16 | 161 | 12.9 | 20.9 | 0.00 | 0.00 | 0.00 | 37 | 1021.0 |
| 20260509145010 | 16 | 128 | 12.9 | 20.9 | 0.00 | 0.00 | 0.00 | 38 | 1021.0 |
| 20260509144532 | 16 | 138 | 11.3 | 22.5 | 0.00 | 0.00 | 0.00 | 37 | 1021.0 |
| 20260509144010 | 16 | 111 | 14.5 | 22.5 | 0.00 | 0.00 | 0.00 | 37 | 1021.2 |
| 20260509143508 | 16 | 134 | 11.3 | 20.9 | 0.00 | 0.00 | 0.00 | 37 | 1021.3 |
| 20260509143026 | 16 | 134 | 11.3 | 19.3 | 0.00 | 0.00 | 0.00 | 38 | 1021.3 |
| 20260509142508 | 16 | 158 | 9.7 | 17.7 | 0.00 | 0.00 | 0.00 | 39 | 1021.3 |
| 20260509142011 | 16 | 165 | 9.7 | 16.1 | 0.00 | 0.00 | 0.00 | 38 | 1021.3 |
| 20260509141531 | 16 | 159 | 9.7 | 17.7 | 0.00 | 0.00 | 0.00 | 37 | 1021.4 |
| 20260509141015 | 16 | 163 | 11.3 | 19.3 | 0.00 | 0.00 | 0.00 | 37 | 1021.4 |
| 20260509140512 | 16 | 146 | 14.5 | 19.3 | 0.00 | 0.00 | 0.00 | 35 | 1021.6 |
| 20260509140025 | 16 | 156 | 8.0 | 19.3 | 0.00 | 0.00 | 0.00 | 35 | 1021.6 |
| 20260509135513 | 16 | 126 | 12.9 | 19.3 | 0.00 | 0.00 | 0.00 | 34 | 1021.6 |
| 20260509135010 | 16 | 134 | 9.7 | 19.3 | 0.00 | 0.00 | 0.00 | 35 | 1021.8 |
| 20260509134531 | 16 | 123 | 9.7 | 17.7 | 0.00 | 0.00 | 0.00 | 35 | 1021.9 |
| 20260509134015 | 16 | 151 | 9.7 | 19.3 | 0.00 | 0.00 | 0.00 | 33 | 1021.9 |
| 20260509133510 | 16 | 134 | 9.7 | 25.7 | 0.00 | 0.00 | 0.00 | 33 | 1022.0 |
| 20260509133021 | 16 | 143 | 11.3 | 25.7 | 0.00 | 0.00 | 0.00 | 32 | 1022.0 |
| 20260509132511 | 16 | 135 | 9.7 | 20.9 | 0.00 | 0.00 | 0.00 | 32 | 1022.1 |
| 20260509132014 | 16 | 147 | 11.3 | 20.9 | 0.00 | 0.00 | 0.00 | 32 | 1022.2 |
| 20260509131534 | 16 | 147 | 9.7 | 20.9 | 0.00 | 0.00 | 0.00 | 33 | 1022.2 |
| 20260509131016 | 16 | 121 | 14.5 | 20.9 | 0.00 | 0.00 | 0.00 | 33 | 1022.2 |
| 20260509130507 | 16 | 130 | 12.9 | 22.5 | 0.00 | 0.00 | 0.00 | 34 | 1022.3 |
| 20260509130016 | 16 | 142 | 12.9 | 22.5 | 0.00 | 0.00 | 0.00 | 32 | 1022.3 |
| 20260509125512 | 16 | 169 | 6.4 | 20.9 | 0.00 | 0.00 | 0.00 | 32 | 1022.4 |
| 20260509125005 | 16 | 125 | 9.7 | 20.9 | 0.00 | 0.00 | 0.00 | 33 | 1022.5 |
| 20260509124517 | 16 | 176 | 12.9 | 19.3 | 0.00 | 0.00 | 0.00 | 33 | 1022.6 |
| 20260509124009 | 16 | 161 | 9.7 | 19.3 | 0.00 | 0.00 | 0.00 | 32 | 1022.6 |
| 20260509123511 | 16 | 205 | 9.7 | 19.3 | 0.00 | 0.00 | 0.00 | 34 | 1022.7 |
| 20260509123017 | 16 | 107 | 12.9 | 19.3 | 0.00 | 0.00 | 0.00 | 33 | 1022.7 |
| 20260509122510 | 16 | 166 | 4.8 | 19.3 | 0.00 | 0.00 | 0.00 | 34 | 1022.8 |
| 20260509122010 | 16 | 165 | 8.0 | 19.3 | 0.00 | 0.00 | 0.00 | 33 | 1022.8 |
| 20260509121521 | 16 | 190 | 8.0 | 19.3 | 0.00 | 0.00 | 0.00 | 35 | 1022.8 |
| 20260509121006 | 16 | 183 | 11.3 | 19.3 | 0.00 | 0.00 | 0.00 | 32 | 1022.9 |
| 20260509120510 | 16 | 184 | 12.9 | 17.7 | 0.00 | 0.00 | 0.00 | 31 | 1022.8 |
| 20260509120036 | 16 | 254 | 4.8 | 19.3 | 0.00 | 0.00 | 0.00 | 37 | 1022.9 |
| 20260509115506 | 16 | 165 | 8.0 | 19.3 | 0.00 | 0.00 | 0.00 | 33 | 1022.9 |
| 20260509115006 | 16 | 146 | 6.4 | 19.3 | 0.00 | 0.00 | 0.00 | 32 | 1022.9 |
| 20260509114525 | 16 | 163 | 9.7 | 20.9 | 0.00 | 0.00 | 0.00 | 30 | 1023.1 |
| 20260509114010 | 16 | 146 | 14.5 | 20.9 | 0.00 | 0.00 | 0.00 | 30 | 1023.2 |
| 20260509113507 | 15 | 118 | 11.3 | 24.1 | 0.00 | 0.00 | 0.00 | 30 | 1023.2 |
| 20260509113020 | 16 | 174 | 11.3 | 24.1 | 0.00 | 0.00 | 0.00 | 32 | 1023.2 |
| 20260509112510 | 16 | 161 | 12.9 | 24.1 | 0.00 | 0.00 | 0.00 | 31 | 1023.2 |
| 20260509112009 | 17 | 145 | 8.0 | 20.9 | 0.00 | 0.00 | 0.00 | 34 | 1023.2 |
| 20260509111519 | 16 | 74 | 8.0 | 20.9 | 0.00 | 0.00 | 0.00 | 32 | 1023.2 |
| 20260509111009 | 16 | 97 | 3.2 | 20.9 | 0.00 | 0.00 | 0.00 | 32 | 1023.2 |
| 20260509110505 | 15 | 157 | 6.4 | 19.3 | 0.00 | 0.00 | 0.00 | 31 | 1023.3 |
| 20260509110023 | 16 | 113 | 9.7 | 19.3 | 0.00 | 0.00 | 0.00 | 33 | 1023.4 |
| 20260509105513 | 16 | 141 | 8.0 | 14.5 | 0.00 | 0.00 | 0.00 | 32 | 1023.4 |
| 20260509105010 | 15 | 31 | 4.8 | 14.5 | 0.00 | 0.00 | 0.00 | 29 | 1023.4 |
| 20260509104512 | 16 | 119 | 8.0 | 14.5 | 0.00 | 0.00 | 0.00 | 30 | 1023.4 |
| 20260509104009 | 15 | 42 | 4.8 | 14.5 | 0.00 | 0.00 | 0.00 | 30 | 1023.4 |
| 20260509103509 | 16 | 137 | 8.0 | 14.5 | 0.00 | 0.00 | 0.00 | 33 | 1023.4 |
| 20260509103020 | 16 | 94 | 3.2 | 14.5 | 0.00 | 0.00 | 0.00 | 31 | 1023.4 |